Weather History for KCEU - July, 2013

Change the Weather History Date:

Tuesday, July 9, 2013

  Actual Average Record
Temperature  
Mean Temperature 80 °F -  
Max Temperature 88 °F 90 °F 103 °F (1977)
Min Temperature 71 °F 66 °F 51 °F (1933)
Cooling Degree Days 14    
Growing Degree Days 30 (Base 50)    
Moisture  
Dew Point 70 °F    
Average Humidity 81    
Maximum Humidity 91    
Minimum Humidity 61    
Precipitation  
Precipitation 1.14 in - - ()
Sea Level Pressure  
Sea Level Pressure 30.16 in    
Wind  
Wind Speed 4 mph (WSW)    
Max Wind Speed 13 mph    
Max Gust Speed 22 mph    
Visibility 8 miles    
Events Rain , Thunderstorm    
Averages and records for this station are not official NWS values.
T = Trace of Precipitation, MM = Missing Value Source: NWS Daily Summary

Daily Weather History Graph

Daily Weather History Graph

Search for Another Location

Airport or City:

Trip Planner

Search our weather history database for the weather conditions in past years. The results will help you decide how hot, cold, wet, or windy it might be!

Date:

Astronomy

Jul. 09, 2013 Rise Set
Actual Time 6:26 AM EDT 8:47 PM EDT
Civil Twilight 5:57 AM EDT 9:16 PM EDT
Nautical Twilight 5:21 AM EDT 9:51 PM EDT
Astronomical Twilight 4:42 AM EDT 10:30 PM EDT
Moon 7:44 AM EDT (7/9) 9:30 PM EDT (7/9)
Length of Visible Light 15h 19m
Length of Day
14h 20m
New Moon, 2% of the Moon is Illuminated
Jul 9
New Moon
Jul 15
First Quarter
Jul 22
Full
Jul 29
Last Quarter
Aug 6
New

Hourly Weather History & Observations

Time (EDT) Temp. Heat Index Dew Point Humidity Pressure Visibility Wind Dir Wind Speed Gust Speed Precip Events Conditions
12:01 AM 73.4 °F - 69.8 °F 88% 30.24 in 4.0 mi Variable 3.5 mph - 0.05 in Rain , Thunderstorm Heavy Thunderstorms and Rain
12:12 AM 73.4 °F - 69.8 °F 88% 30.23 in 5.0 mi Variable 3.5 mph - 0.08 in Rain , Thunderstorm Rain
12:26 AM 73.4 °F - 69.8 °F 88% 30.23 in 5.0 mi Calm Calm - 0.14 in Rain , Thunderstorm Thunderstorms and Rain
12:54 AM 73.0 °F - 69.1 °F 87% 30.18 in 7.0 mi Calm Calm - 0.26 in Rain , Thunderstorm Rain
1:05 AM 73.4 °F - 69.8 °F 88% 30.21 in 10.0 mi Calm Calm - 0.00 in Rain Light Rain
1:37 AM 73.4 °F - 69.8 °F 88% 30.21 in 7.0 mi Calm Calm - 0.02 in Rain Light Rain
1:45 AM 73.4 °F - 69.8 °F 88% 30.21 in 4.0 mi Calm Calm - 0.04 in Rain , Thunderstorm Rain
1:54 AM 73.0 °F - 69.1 °F 87% 30.18 in 5.0 mi Variable 3.5 mph - 0.06 in Rain , Thunderstorm Rain
2:22 AM 73.4 °F - 69.8 °F 88% 30.21 in 4.0 mi Variable 4.6 mph - 0.06 in Rain Rain
2:45 AM 71.6 °F - 68.0 °F 88% 30.21 in 5.0 mi SW 6.9 mph - 0.12 in Rain , Thunderstorm Rain
2:54 AM 73.0 °F - 68.0 °F 84% 30.17 in 6.0 mi WSW 11.5 mph - 0.13 in Rain Rain
3:10 AM 73.4 °F - 68.0 °F 83% 30.20 in 1.8 mi West 11.5 mph 21.9 mph 0.21 in Rain Heavy Rain
3:20 AM 73.4 °F - 66.2 °F 78% 30.19 in 3.0 mi West 12.7 mph - 0.27 in Rain Heavy Rain
3:54 AM 73.9 °F - 68.0 °F 82% 30.15 in 7.0 mi WSW 6.9 mph - 0.39 in Rain Light Rain
4:54 AM 73.0 °F - 69.1 °F 87% 30.14 in 10.0 mi North 6.9 mph - 0.08 in Rain Light Rain
5:10 AM 73.4 °F - 69.8 °F 88% 30.17 in 10.0 mi NNW 3.5 mph - 0.00 in   Overcast
5:19 AM 73.4 °F - 69.8 °F 88% 30.16 in 10.0 mi North 3.5 mph - 0.00 in   Overcast
5:54 AM 72.0 °F - 69.1 °F 91% 30.13 in 10.0 mi Calm Calm - 0.00 in   Scattered Clouds
6:28 AM 73.4 °F - 69.8 °F 88% 30.18 in 9.0 mi Variable 4.6 mph - N/A   Mostly Cloudy
6:54 AM 73.0 °F - 69.1 °F 87% 30.16 in 7.0 mi SSW 4.6 mph - N/A   Overcast
7:20 AM 73.4 °F - 69.8 °F 88% 30.19 in 10.0 mi West 4.6 mph - N/A   Mostly Cloudy
7:27 AM 73.4 °F - 69.8 °F 88% 30.19 in 10.0 mi WSW 4.6 mph - N/A   Scattered Clouds
7:54 AM 73.9 °F - 70.0 °F 87% 30.17 in 10.0 mi Calm Calm - N/A   Scattered Clouds
8:04 AM 73.4 °F - 69.8 °F 88% 30.19 in 10.0 mi SW 3.5 mph - N/A   Mostly Cloudy
8:29 AM 73.4 °F - 69.8 °F 88% 30.20 in 1.8 mi WSW 5.8 mph - N/A   Overcast
8:47 AM 73.4 °F - 69.8 °F 88% 30.20 in 3.0 mi WSW 6.9 mph - N/A   Overcast
8:54 AM 73.9 °F - 70.0 °F 87% 30.18 in 8.0 mi WSW 4.6 mph - N/A   Overcast
9:30 AM 75.2 °F - 71.6 °F 89% 30.21 in 10.0 mi West 3.5 mph - N/A   Overcast
9:54 AM 77.0 °F - 71.1 °F 82% 30.18 in 10.0 mi WNW 4.6 mph - N/A   Overcast
10:01 AM 78.8 °F - 71.6 °F 78% 30.21 in 10.0 mi WNW 4.6 mph - N/A   Mostly Cloudy
10:50 AM 80.6 °F 83.9 °F 69.8 °F 70% 30.20 in 10.0 mi West 3.5 mph - N/A   Scattered Clouds
10:54 AM 79.0 °F - 70.0 °F 74% 30.17 in 10.0 mi Calm Calm - N/A   Mostly Cloudy
11:31 AM 80.6 °F 84.6 °F 71.6 °F 74% 30.20 in 10.0 mi Variable 3.5 mph - N/A   Scattered Clouds
11:43 AM 80.6 °F 84.6 °F 71.6 °F 74% 30.20 in 10.0 mi Variable 4.6 mph - N/A   Mostly Cloudy
11:51 AM 82.4 °F 87.2 °F 71.6 °F 70% 30.20 in 10.0 mi Variable 4.6 mph - N/A   Scattered Clouds
11:54 AM 82.0 °F 86.3 °F 71.1 °F 69% 30.17 in 10.0 mi ESE 4.6 mph - N/A   Mostly Cloudy
12:54 PM 84.0 °F 89.6 °F 72.0 °F 67% 30.17 in 10.0 mi Calm Calm - N/A   Mostly Cloudy
1:01 PM 82.4 °F 87.2 °F 71.6 °F 70% 30.20 in 10.0 mi Variable 3.5 mph - N/A   Scattered Clouds
1:54 PM 84.0 °F 89.6 °F 72.0 °F 67% 30.15 in 10.0 mi ESE 5.8 mph - N/A   Partly Cloudy
2:47 PM 84.2 °F 89.6 °F 71.6 °F 66% 30.15 in 10.0 mi SE 5.8 mph - N/A   Mostly Cloudy
2:54 PM 86.0 °F 92.2 °F 72.0 °F 63% 30.12 in 10.0 mi Calm Calm - N/A   Mostly Cloudy
3:06 PM 86.0 °F 91.8 °F 71.6 °F 62% 30.15 in 10.0 mi Variable 5.8 mph - N/A   Scattered Clouds
3:54 PM 87.1 °F 93.6 °F 72.0 °F 61% 30.09 in 10.0 mi SSE 6.9 mph - N/A   Partly Cloudy
4:54 PM 88.0 °F 95.6 °F 73.0 °F 61% 30.08 in 10.0 mi SSE 4.6 mph - N/A   Mostly Cloudy
5:54 PM 87.1 °F 93.6 °F 72.0 °F 61% 30.07 in 10.0 mi South 5.8 mph - N/A   Clear
6:29 PM 84.2 °F 90.9 °F 73.4 °F 70% 30.10 in 10.0 mi Calm Calm - N/A Thunderstorm Scattered Clouds
6:44 PM 82.4 °F 88.2 °F 73.4 °F 74% 30.10 in 10.0 mi South 3.5 mph - N/A   Mostly Cloudy
6:54 PM 82.9 °F 88.0 °F 72.0 °F 69% 30.07 in 10.0 mi SW 4.6 mph - N/A Thunderstorm Mostly Cloudy
7:14 PM 82.4 °F 87.2 °F 71.6 °F 70% 30.11 in 10.0 mi NW 6.9 mph - 0.01 in Thunderstorm Thunderstorm
7:35 PM 77.0 °F - 71.6 °F 83% 30.12 in 2.5 mi North 8.1 mph - 0.13 in Rain , Thunderstorm Heavy Thunderstorms and Rain
7:46 PM 75.2 °F - 71.6 °F 89% 30.12 in 4.0 mi NNW 8.1 mph - 0.16 in Rain , Thunderstorm Thunderstorms and Rain
7:54 PM 75.0 °F - 69.1 °F 82% 30.09 in 4.0 mi North 4.6 mph - 0.19 in Rain , Thunderstorm Thunderstorms and Rain
8:12 PM 73.4 °F - 68.0 °F 83% 30.11 in 9.0 mi NNE 5.8 mph - 0.01 in Rain Light Rain
8:29 PM 73.4 °F - 66.2 °F 78% 30.13 in 10.0 mi South 8.1 mph - 0.02 in Rain , Thunderstorm Light Rain
8:54 PM 75.9 °F - 70.0 °F 82% 30.10 in 10.0 mi SSW 3.5 mph - 0.02 in Thunderstorm Scattered Clouds
9:14 PM 75.2 °F - 71.6 °F 89% 30.12 in 10.0 mi Calm Calm - 0.00 in   Clear
9:29 PM 75.2 °F - 71.6 °F 89% 30.14 in 9.0 mi Calm Calm - 0.00 in Rain , Thunderstorm Light Rain
9:54 PM 75.0 °F - 71.1 °F 87% 30.11 in 9.0 mi Calm Calm - 0.00 in Thunderstorm Thunderstorm
10:05 PM 75.2 °F - 71.6 °F 89% 30.14 in 8.0 mi ENE 4.6 mph - 0.00 in Rain Light Rain
10:40 PM 75.2 °F - 71.6 °F 89% 30.15 in 9.0 mi Calm Calm - 0.01 in Rain Light Rain
10:50 PM 75.2 °F - 71.6 °F 89% 30.15 in 10.0 mi Calm Calm - 0.01 in   Mostly Cloudy
10:54 PM 75.0 °F - 71.1 °F 87% 30.12 in 10.0 mi Calm Calm - 0.01 in   Mostly Cloudy
11:12 PM 75.2 °F - 71.6 °F 89% 30.15 in 8.0 mi East 4.6 mph - N/A   Mostly Cloudy
11:34 PM 75.2 °F - 69.8 °F 83% 30.16 in 10.0 mi ESE 3.5 mph - N/A   Mostly Cloudy
11:54 PM 75.0 °F - 70.0 °F 84% 30.13 in 10.0 mi SSE 3.5 mph - N/A   Overcast